User: anonymous   Login
Location: Unspecified
(0.0000°N, 0.0000°E)
Time: 22:52:41
(UTC+00:00)
Language:

Explorer 11/Cluster Stage 4 - Orbit

View from above orbital plane
View from above orbital plane
View from above satellite
View from above satellite

Ground track
Ground track

The orbit data is extracted from the following two-line orbital elements,

1 00107U 61013A   14303.32109856  .00006380  00000-0  86917-3 0  1717
2 00107 028.7872 263.8708 0560148 027.1145 089.5864 14.05634386675594
Epoch (UTC): 30 October 2014 07:42:22
Eccentricity: 0.0560148
inclination: 28.7872°
perigee height: 468 km
apogee height: 1280 km
right ascension of ascending node: 263.8708°
argument of perigee: 27.1145°
revolutions per day: 14.05634386
mean anomaly at epoch: 89.5864°
orbit number at epoch: 67559

The dashed part of the orbit path shows where the satellite is in the earth's shadow,  

DLR